[[{"header":{"parameterUnit":"m.s-1","parameterCategory":1,"la1":30.2991,"la2":30.254,"lo1":-89.0895,"lo2":-89.0444,"dy":0.0017,"dx":0.0017,"nx":28,"ny":28,"refTime":"2025-04-03T09:00:00:Z","depth":0,"parameterNumber":2,"parameterNumberName":"U-component_of_WINDS"},"data":[0,0,0,0,0,0,0,0,0,0,0,0,0,0,0,0,0,0,0,0,0,0,0,0,0,0,0,0,0,0,0,0,0,0,0,0,0,0,0,0,0,0,0,0,0,0,0,0,0,0,0,0,0,0,0,0,0,0,-5.2289,-5.229,0,-5.2444,-5.2446,-5.2447,-5.247,-5.2469,-5.2467,-5.2466,-5.2624,-5.2629,-5.2635,0,0,0,0,0,0,0,0,0,0,0,0,0,-5.2013,-5.2018,-5.2289,-5.2291,-5.2293,-5.2443,-5.2446,-5.2448,-5.247,-5.2469,-5.2467,-5.2465,-5.2622,-5.2629,-5.2635,0,0,0,0,0,0,0,0,0,0,0,0,0,-5.2147,-5.2019,-5.2288,-5.2322,-5.2327,-5.2443,-5.2446,-5.2448,-5.2471,-5.2468,-5.2466,-5.2464,-5.262,-5.2628,-5.2636,-5.273,0,0,-5.2661,-5.2665,0,0,0,0,0,0,0,0,-5.2139,-5.2157,-5.2315,-5.232,-5.2325,-5.2435,-5.2406,-5.2543,-5.2471,-5.2416,-5.2466,-5.2463,-5.2563,-5.2576,-5.2609,-5.2737,-5.2744,-5.2662,-5.2667,-5.2671,-5.2673,0,0,0,0,0,0,0,-5.213,-5.215,-5.235,-5.2317,-5.2324,-5.233,-5.2346,-5.2432,-5.2499,-5.2421,-5.2423,-5.2441,-5.2565,-5.2601,-5.2613,-5.2746,-5.2662,-5.2669,-5.2674,-5.2678,-5.2959,-5.2962,0,0,0,0,0,0,-5.2114,-5.2142,-5.2345,-5.2355,-5.2225,-5.2336,-5.2355,-5.2402,-5.2498,-5.2511,-5.2442,-5.2441,-5.2588,-5.2604,-5.2619,-5.2734,-5.2671,-5.2679,-5.2683,-5.2957,-5.296,-5.2963,0,0,0,0,0,0,-5.2108,-5.2132,-5.2339,-5.2249,-5.2276,-5.2343,-5.2396,-5.2406,-5.2442,-5.2515,-5.2527,-5.2467,-5.2587,-5.2607,-5.2702,-5.274,-5.2682,-5.269,-5.2954,-5.2958,-5.2961,-5.2966,0,0,0,0,0,0,-5.21,-5.213,-5.2166,-5.225,-5.2281,-5.2419,-5.2399,-5.2411,-5.2457,-5.2457,-5.2541,-5.2553,-5.2587,-5.269,-5.271,-5.2751,-5.2696,-5.2951,-5.2956,-5.296,-5.2963,-5.2969,-5.2975,0,0,0,0,0,-5.209,-5.2161,-5.2167,-5.2192,-5.2327,-5.2421,-5.2439,-5.2477,-5.246,-5.2496,-5.2543,-5.255,-5.2734,-5.2699,-5.2723,-5.2766,-5.2949,-5.2954,-5.296,-5.296,-5.2968,-5.2975,0,0,0,0,0,0,-5.2078,-5.2172,-5.2181,-5.228,-5.2343,-5.2425,-5.2472,-5.2484,-5.2552,-5.2549,-5.2594,-5.2613,-5.2705,-5.2746,-5.2706,-5.2862,-5.284,-5.285,-5.2832,-5.284,-5.2846,-5.2833,-5.2703,0,0,0,0,0,-5.2087,-5.2156,-5.2235,-5.2315,-5.2346,-5.2404,-5.2446,-5.247,-5.2537,-5.2563,-5.2617,-5.2681,-5.2753,-5.2799,-5.287,-5.297,-5.2988,-5.3012,-5.3018,-5.3023,-5.303,-5.3087,-5.3097,-5.2981,-5.2981,-5.2981,0,0,-5.2106,-5.2166,-5.2206,-5.2314,-5.2365,-5.2435,-5.2425,-5.25,-5.2553,-5.2574,-5.2667,-5.2709,-5.2784,-5.2882,-5.2928,-5.2918,-5.3067,-5.303,-5.3033,-5.3038,-5.3093,-5.3104,-5.3114,-5.2985,-5.2984,-5.2984,0,0,-5.2176,-5.2229,-5.2301,-5.2353,-5.2431,-5.247,-5.2487,-5.2569,-5.2597,-5.2692,-5.2709,-5.2773,-5.2897,-5.2949,-5.2992,-5.3085,-5.3094,-5.3107,-5.3138,-5.3193,-5.3202,-5.321,-5.3242,-5.3253,-5.3115,-5.3115,-5.3115,0,-5.2189,-5.2295,-5.2337,-5.2411,-5.2458,-5.2482,-5.2556,-5.2605,-5.2701,-5.2733,-5.2722,-5.2878,-5.293,-5.3041,-5.3063,-5.3098,-5.3119,-5.3096,-5.3197,-5.3206,-5.3214,-5.3245,-5.3257,-5.3116,-5.3116,-5.3116,-5.3116,0,-5.2307,-5.2381,-5.2431,-5.2524,-5.2577,-5.265,-5.2703,-5.2752,-5.2773,-5.2812,-5.2908,-5.2972,-5.3056,-5.3085,-5.3106,-5.3199,-5.3191,-5.3188,-5.3166,-5.3225,-5.3255,-5.3267,-5.3117,-5.3117,-5.3117,-5.3116,0,0,-5.237,-5.2488,-5.2505,-5.2548,-5.2637,-5.2695,-5.2771,-5.2853,-5.2894,-5.2961,-5.3025,-5.313,-5.3129,-5.3177,-5.3205,-5.3253,-5.3321,-5.3244,-5.3247,-5.3255,-5.3428,-5.3427,-5.344,-5.3329,-5.3332,-5.3334,-5.3421,0,-5.2449,-5.2583,-5.2624,-5.2737,-5.2806,-5.2832,-5.2898,-5.296,-5.3,-5.3065,-5.3109,-5.3182,-5.3176,-5.3205,-5.3254,-5.3302,-5.3356,-5.3297,-5.3388,-5.3391,-5.3366,-5.3456,-5.3456,-5.3534,-5.3433,-5.3435,-5.3436,0,-5.2558,-5.2627,-5.2747,-5.2829,-5.2859,-5.2917,-5.2997,-5.3059,-5.313,-5.3156,-5.3212,-5.3236,-5.3316,-5.3292,-5.3403,-5.3362,-5.3403,-5.3433,-5.3437,-5.3444,-5.3415,-5.3464,-5.3561,-5.3571,-5.3455,-5.3454,-5.3453,0,-5.2589,-5.2713,-5.2801,-5.2837,-5.2935,-5.2976,-5.3018,-5.3088,-5.3136,-5.3206,-5.3237,-5.3316,-5.3358,-5.3419,-5.3464,-5.3442,-5.3571,-5.3551,-5.3594,-5.3593,-5.3617,-5.3615,-5.3719,-5.3648,-5.3647,-5.3647,-5.3647,0,-5.2671,-5.2743,-5.2817,-5.287,-5.2952,-5.2999,-5.3079,-5.3123,-5.3185,-5.3248,-5.3277,-5.3335,-5.3392,-5.3459,-5.3495,-5.3581,-5.3601,-5.3623,-5.3631,-5.3619,-5.3616,-5.3644,-5.3639,-5.365,-5.365,-5.3649,-5.3649,0,-5.2719,-5.2771,-5.2868,-5.2954,-5.2977,-5.3033,-5.3107,-5.316,-5.3203,-5.3282,-5.3304,-5.337,-5.345,-5.3502,-5.3604,-5.3628,-5.3722,-5.373,-5.3697,-5.3701,-5.374,-5.3735,-5.3865,-5.3884,-5.3801,-5.3802,-5.3802,0,-5.2766,-5.2822,-5.2914,-5.2959,-5.3002,-5.3073,-5.3122,-5.3171,-5.3221,-5.3309,-5.3351,-5.3433,-5.3501,-5.3628,-5.3685,-5.3764,-5.3772,-5.3813,-5.3784,-5.377,-5.3771,-5.3766,-5.3771,-5.3816,-5.3817,-5.3817,-5.3818,0,-5.2845,-5.2868,-5.2937,-5.3016,-5.3074,-5.3139,-5.3203,-5.3238,-5.3299,-5.3354,-5.3436,-5.3489,-5.3594,-5.3674,-5.3759,-5.3803,-5.382,-5.3827,-5.3841,-5.3827,-5.3805,-5.3816,-5.3707,-5.3823,-5.3822,-5.3822,-5.3821,-5.3821,-5.2892,-5.2943,-5.3016,-5.3093,-5.3147,-5.3207,-5.3262,-5.3312,-5.3381,-5.347,-5.3496,-5.3581,-5.3654,-5.3768,-5.3815,-5.3883,-5.3878,-5.3898,-5.3903,-5.3907,-5.3906,-5.3797,-5.3899,-5.3899,-5.3899,-5.3899,-5.3899,0,-5.297,-5.3019,-5.3089,-5.3179,-5.324,-5.3253,-5.3325,-5.3375,-5.345,-5.3516,-5.3583,-5.3678,-5.3757,-5.3822,-5.3904,-5.3946,-5.3956,-5.3965,-5.3961,-5.3971,-5.3907,-5.3886,-5.3956,-5.3956,-5.3956,-5.3956,-5.3956,-5.3956,-5.3018,-5.3105,-5.3137,-5.3252,-5.3301,-5.3384,-5.3425,-5.3481,-5.3534,-5.3638,-5.3704,-5.3747,-5.3813,-5.39,-5.3973,-5.3991,-5.4018,-5.4026,-5.4045,-5.3982,-5.3976,-5.3969,-5.395,-5.4032,-5.4032,-5.4103,-5.4104,-5.4104]},{"header":{"parameterUnit":"m.s-1","parameterCategory":1,"la1":30.2991,"la2":30.254,"lo1":-89.0895,"lo2":-89.0444,"dy":0.0017,"dx":0.0017,"nx":28,"ny":28,"refTime":"2025-04-03T09:00:00:Z","depth":0,"parameterNumber":3,"parameterNumberName":"V-component_of_WINDS"},"data":[0,0,0,0,0,0,0,0,0,0,0,0,0,0,0,0,0,0,0,0,0,0,0,0,0,0,0,0,0,0,0,0,0,0,0,0,0,0,0,0,0,0,0,0,0,0,0,0,0,0,0,0,0,0,0,0,0,0,3.6464,3.6465,0,3.6581,3.6582,3.6583,3.6609,3.6608,3.6607,3.6606,3.6724,3.6728,3.6732,0,0,0,0,0,0,0,0,0,0,0,0,0,3.6264,3.6267,3.6464,3.6465,3.6467,3.658,3.6582,3.6584,3.6609,3.6608,3.6607,3.6606,3.6723,3.6727,3.6732,0,0,0,0,0,0,0,0,0,0,0,0,0,3.6363,3.6269,3.6463,3.6493,3.6497,3.658,3.6582,3.6584,3.6609,3.6608,3.6606,3.6605,3.6721,3.6727,3.6733,3.6795,0,0,3.6751,3.6753,0,0,0,0,0,0,0,0,3.6357,3.637,3.6487,3.6491,3.6495,3.6579,3.6555,3.6655,3.6609,3.6566,3.6606,3.6605,3.6677,3.6686,3.6711,3.68,3.6805,3.6751,3.6755,3.6757,3.6759,0,0,0,0,0,0,0,3.635,3.6365,3.651,3.6489,3.6494,3.6501,3.6513,3.6574,3.6627,3.657,3.6572,3.6586,3.6679,3.6705,3.6714,3.6807,3.6751,3.6756,3.676,3.6762,3.6957,3.6959,0,0,0,0,0,0,3.6338,3.6359,3.6506,3.6513,3.6422,3.6505,3.652,3.6553,3.6627,3.6636,3.6587,3.6586,3.6696,3.6707,3.6718,3.6798,3.6757,3.6763,3.6766,3.6956,3.6958,3.6959,0,0,0,0,0,0,3.6334,3.6351,3.6502,3.6437,3.6457,3.651,3.6548,3.6556,3.6583,3.6639,3.6649,3.6604,3.6695,3.671,3.6776,3.6802,3.6766,3.6771,3.6954,3.6956,3.6958,3.6957,0,0,0,0,0,0,3.6328,3.6349,3.6373,3.6437,3.646,3.6558,3.6549,3.6559,3.6593,3.6594,3.6658,3.6667,3.6695,3.6768,3.6782,3.681,3.6776,3.6952,3.6955,3.6958,3.6955,3.6959,3.6962,0,0,0,0,0,3.6321,3.6366,3.6374,3.6391,3.649,3.6559,3.6572,3.6604,3.6595,3.662,3.6657,3.6665,3.6797,3.6774,3.6791,3.6821,3.695,3.6954,3.6957,3.6953,3.6958,3.6962,0,0,0,0,0,0,3.6302,3.6375,3.6384,3.6452,3.6499,3.6563,3.6595,3.6607,3.6658,3.6656,3.6693,3.6707,3.6773,3.6803,3.6776,3.6886,3.6873,3.688,3.6864,3.6869,3.6873,3.6865,3.678,0,0,0,0,0,3.6306,3.6355,3.6416,3.6471,3.6494,3.654,3.6571,3.6592,3.6642,3.6662,3.6704,3.6752,3.6805,3.6839,3.689,3.6959,3.6975,3.6988,3.6992,3.6995,3.7001,3.7044,3.7051,3.6971,3.6971,3.6971,0,0,3.6314,3.636,3.6389,3.6468,3.6507,3.6559,3.6557,3.661,3.6649,3.667,3.6737,3.6769,3.6826,3.6895,3.6927,3.6922,3.7027,3.7,3.7001,3.7006,3.7048,3.7056,3.7062,3.6974,3.6973,3.6973,0,0,3.6356,3.6394,3.6446,3.6486,3.6545,3.6577,3.6589,3.6652,3.6675,3.6742,3.676,3.6807,3.6896,3.6937,3.6969,3.7031,3.7042,3.7046,3.7066,3.7107,3.7114,3.7119,3.7144,3.7152,3.7052,3.7052,3.7052,0,3.6358,3.6436,3.647,3.6524,3.656,3.6583,3.6636,3.6673,3.6746,3.677,3.6764,3.6879,3.6918,3.6999,3.7015,3.7039,3.7056,3.7039,3.711,3.7116,3.7122,3.7146,3.7155,3.7052,3.7052,3.7052,3.7052,0,3.6438,3.6492,3.6526,3.6598,3.6638,3.669,3.6734,3.6769,3.6788,3.682,3.689,3.6939,3.7002,3.7023,3.704,3.7107,3.7103,3.7103,3.709,3.713,3.7153,3.7162,3.7053,3.7053,3.7053,3.7053,0,0,3.6469,3.6562,3.6574,3.6609,3.6678,3.6721,3.6776,3.684,3.6871,3.6921,3.697,3.7047,3.7048,3.7085,3.7107,3.7143,3.7193,3.7139,3.7141,3.715,3.7273,3.7274,3.7284,3.72,3.7202,3.7203,3.7269,0,3.6521,3.6621,3.6655,3.6738,3.679,3.6814,3.6863,3.6911,3.6944,3.6993,3.7029,3.7084,3.708,3.7103,3.714,3.7179,3.7218,3.7174,3.7247,3.7249,3.7234,3.7296,3.7296,3.7356,3.7278,3.728,3.7281,0,3.6594,3.6648,3.6737,3.6804,3.6827,3.687,3.6932,3.6979,3.7035,3.7056,3.7099,3.712,3.718,3.7164,3.7249,3.7219,3.7251,3.7275,3.7278,3.7287,3.7268,3.7308,3.7375,3.7385,3.7295,3.7294,3.7293,0,3.6612,3.6706,3.6773,3.6801,3.6879,3.691,3.6944,3.6999,3.7036,3.7091,3.7116,3.7176,3.721,3.7257,3.7294,3.7278,3.7377,3.7363,3.7398,3.7397,3.7418,3.7416,3.7493,3.7435,3.7435,3.7435,3.7435,0,3.6667,3.6721,3.6782,3.6823,3.6885,3.6924,3.6985,3.702,3.707,3.7119,3.7143,3.7189,3.7234,3.7287,3.7316,3.7384,3.7398,3.7418,3.7426,3.7417,3.7415,3.7439,3.7437,3.7437,3.7437,3.7436,3.7436,0,3.6697,3.674,3.6814,3.6884,3.6902,3.6945,3.7005,3.7046,3.7081,3.7143,3.716,3.7214,3.7277,3.7319,3.7398,3.7419,3.7493,3.7498,3.7474,3.7478,3.7512,3.7509,3.7608,3.7624,3.7554,3.7555,3.7555,0,3.673,3.6773,3.6848,3.6883,3.6918,3.6973,3.7013,3.7053,3.7093,3.7162,3.7196,3.7261,3.7315,3.7415,3.7462,3.7524,3.7533,3.7563,3.7542,3.7533,3.7536,3.7534,3.754,3.7567,3.7567,3.7568,3.7568,0,3.6786,3.6806,3.6861,3.6925,3.6971,3.7023,3.7075,3.7102,3.7152,3.7196,3.7262,3.7304,3.7387,3.7452,3.752,3.7555,3.7571,3.7575,3.7587,3.7579,3.7564,3.7575,3.7486,3.7572,3.7572,3.7572,3.7571,3.7571,3.682,3.6861,3.6921,3.6982,3.7026,3.7075,3.7119,3.716,3.7215,3.7287,3.7308,3.7377,3.7436,3.7528,3.7565,3.7621,3.7617,3.7633,3.7638,3.7642,3.7644,3.7554,3.7632,3.7632,3.7632,3.7632,3.7632,0,3.6879,3.692,3.6976,3.705,3.7099,3.711,3.7169,3.721,3.7271,3.7324,3.7378,3.7455,3.7519,3.7572,3.7639,3.7673,3.7682,3.7689,3.7688,3.7697,3.7641,3.7626,3.7681,3.7681,3.7681,3.7681,3.7681,3.7681,3.6916,3.6986,3.7014,3.7107,3.7147,3.7216,3.7249,3.7295,3.7338,3.7424,3.7478,3.7512,3.7566,3.7638,3.7698,3.7712,3.7736,3.7742,3.7758,3.7706,3.77,3.7695,3.7681,3.7747,3.7747,3.7809,3.781,3.781]}]]